Flag for U.S.A. Weather past 2 weeks in Olympia, Washington, U.S.A.

Now
44 °F

Passing clouds.


Feels Like: 38 °F
Forecast: 42 / 58 °F
Wind: 12 mph from Southwest

Location: Olympia Airport


UV Index: 3 (Moderate)

Visibility: 9 mi


Pressure: 30.03 "Hg

Humidity: 82%

Dew point: 39 °F

Location of OlympiaLocation

Historic Weather in Olympia

°F

Olympia temperature yesterday

Maximum temperature yesterday: 53 °F (at 11:54 AM)
Minimum temperature yesterday: 46 °F (at 10:54 PM)
Average temperature yesterday: 50 °F

Past Weeks' High & Low Weather Summary

 TemperatureHumidityPressure
High74 °F (Apr 7, 4:54 PM)100% (Apr 4, 3:03 AM)30.32 "Hg (Apr 4, 3:03 AM)
Low31 °F (Apr 10, 6:01 AM)23% (Apr 13, 3:54 PM)29.74 "Hg (Apr 17, 5:54 PM)
Average49 °F78%30.11 "Hg
* Reported Apr 3 2:54 AM — Apr 18 2:54 AM, Olympia, Weather by CustomWeather, © 2014

Note: Actual official high and low records may vary slightly from our data, if they occured in-between our weather recording intervals... More about our weather records

Advertising

Historic Weather Conditions — Data for Previous 24 hours

 ConditionsComfort  
Time TempWeatherWind HumidityBarometerVisibility
2:54 AM
Apr 18
44 °FOvercast.10 mph79%30.02 "Hg10 mi
1:54 AM44 °FMostly cloudy.8 mph85%30.01 "Hg9 mi
12:54 AM45 °FOvercast.14 mph80%29.98 "Hg9 mi
11:54 PM
Apr 17
46 °FOvercast.8 mph79%29.96 "Hg8 mi
10:54 PM46 °FMostly cloudy.7 mph79%29.94 "Hg8 mi
10:04 PM47 °FMostly cloudy.7 mph80%29.91 "Hg10 mi
9:54 PM47 °FMostly cloudy.5 mph83%29.91 "Hg9 mi
9:03 PM47 °FMostly cloudy.9 mph83%29.88 "Hg10 mi
8:54 PM47 °FBroken clouds.9 mph83%29.88 "Hg10 mi
7:54 PM47 °FMostly cloudy.13 mph83%29.82 "Hg10 mi
6:54 PM52 °FFog.14 mph89%29.76 "Hg3 mi
5:54 PM52 °FFog.14 mph89%29.74 "Hg4 mi
4:54 PM52 °FRain. Fog.8 mph89%29.78 "Hg2 mi
3:54 PM52 °FLight rain. Fog.9 mph89%29.78 "Hg3 mi
2:54 PM52 °FLight rain. Fog.7 mph89%29.80 "Hg4 mi
1:54 PM53 °FLight rain. Fog.9 mph86%29.81 "Hg4 mi
12:54 PM52 °FLight rain. Fog.14 mph93%29.82 "Hg4 mi
11:54 AM53 °FLight rain. Cloudy.9 mph89%29.83 "Hg7 mi
10:54 AM52 °FLight rain. Fog.8 mph93%29.84 "Hg3 mi
9:54 AM51 °FRain. Fog.10 mph96%29.84 "Hg3 mi
8:54 AM51 °FLight rain. Fog.8 mph92%29.84 "Hg4 mi
7:54 AM50 °FLight rain. Fog.8 mph96%29.86 "Hg5 mi
6:54 AM50 °FLight rain. Fog.5 mph96%29.86 "Hg4 mi
5:54 AM50 °FLight rain. Fog.7 mph93%29.87 "Hg4 mi
5:04 AM50 °FLight rain. Fog.5 mph93%29.89 "Hg3 mi
4:54 AM50 °FLight rain. Fog.5 mph93%29.89 "Hg4 mi
Weather by CustomWeather, © 2014

See weather overview